This demonstration page uses our WeatherBlox Daily Observations layout. Learn more.

Left ArrowRight Arrow

39.08367, -84.50855

Hourly Observations for May 8, 2019

Temp ( °F °C ) Dew Point ( °F °C ) Humidity (%) Winds ( mph kmh ) Pressure ( in mb ) Visibility ( mi km ) Precip ( " mm )
12:53 am 00:53 Clear 61 16.1 53 11.7 75 75 NE 8 13 30.12 1020 10 16 N/A
1:53 am 01:53 Clear 59 15 52 11.1 78 78 NE 7 11 30.11 1020 10 16 N/A
2:53 am 02:53 Clear 57 13.9 52 11.1 83 83 NE 3 6 30.11 1020 10 16 N/A
3:53 am 03:53 Clear 58 14.4 52 11.1 81 81 NE 7 11 30.11 1020 10 16 N/A
4:53 am 04:53 Clear 56 13.3 50 10 81 81 NE 8 13 30.11 1020 10 16 N/A
5:53 am 05:53 Clear 54 12.2 49 9.4 83 83 NE 6 9 30.13 1020 10 16 N/A
6:53 am 06:53 Sunny 53 11.7 49 9.4 86 86 NE 3 6 30.14 1021 10 16 N/A
7:53 am 07:53 Sunny 57 13.9 49 9.4 74 74 NE 7 11 30.14 1021 10 16 N/A
8:53 am 08:53 Sunny 60 15.6 51 10.6 72 72 NE 9 15 30.12 1020 10 16 N/A
9:53 am 09:53 Sunny 64 17.8 54 12.2 70 70 NE 8 13 30.11 1020 10 16 N/A
10:53 am 10:53 Sunny 68 20 55 12.8 63 63 NNE 8 13 30.10 1019 10 16 N/A
11:53 am 11:53 Sunny 72 22.2 57 13.9 59 59 NE 5 7 30.09 1019 10 16 N/A
12:53 pm 12:53 Sunny 76 24.4 59 15 56 56 NE 7 11 30.06 1018 10 16 N/A
1:53 pm 13:53 Sunny 79 26.1 59 15 50 50 N N/A 30.02 1017 10 16 N/A
2:53 pm 14:53 Sunny 80 26.7 58 14.4 47 47 SE 9 15 30.00 1016 10 16 N/A
3:53 pm 15:53 Sunny 82 27.8 60 15.6 47 47 SSE 9 15 29.96 1015 10 16 N/A
4:53 pm 16:53 Mostly Sunny 83 28.3 61 16.1 48 48 ESE 12 19 29.93 1014 10 16 N/A
5:53 pm 17:53 Sunny 82 27.8 59 15 46 46 S 7 11 29.93 1013 10 16 N/A
6:53 pm 18:53 Sunny 80 26.7 60 15.6 51 51 S 10 17 29.92 1013 10 16 N/A
7:53 pm 19:53 Sunny 79 26.1 59 15 50 50 SSE 6 9 29.92 1013 10 16 N/A
8:53 pm 20:53 Clear 70 21.1 63 17.2 79 79 ESE 5 7 29.91 1013 10 16 N/A
9:53 pm 21:53 Clear 67 19.4 62 16.7 84 84 N N/A 29.92 1013 10 16 N/A
10:53 pm 22:53 Clear 66 18.9 61 16.1 84 84 N N/A 29.92 1013 10 16 N/A
11:53 pm 23:53 Clear 65 18.3 61 16.1 87 87 S 3 6 29.91 1013 10 16 N/A

Powered by AerisWeather